[TLELIST] Archives

 

[TLELIST] Current TLEs

January 29th 2025 PDT

HST 1 20580U 90037B 25028.70928054 .00010007 00000-0 40831-3 0 9993 2 20580 28.4674 268.7024 0002622 353.7182 6.3379 15.22716153711389 ISS (ZARYA) 1 25544U 98067A 25029.19815771 .00017930 00000-0 31389-3 0 9994 2 25544 51.6395 275.4621 0002297 144.0764 359.2036 15.50674311493607 CXO 1 25867U 99040B 25026.63825163 .00000810 00000-0 00000-0 0 9998 2 25867 46.2701 137.2371 8623610 306.5001 0.4102 0.37801369 15410 ...Continue Reading

[TLELIST] Current TLEs

January 28th 2025 PDT

HST 1 20580U 90037B 25027.00520198 .00009462 00000-0 38603-3 0 9999 2 20580 28.4683 280.2067 0002535 335.2854 24.7618 15.22681064711123 ISS (ZARYA) 1 25544U 98067A 25028.03642316 .00010230 00000-0 18296-3 0 9997 2 25544 51.6404 281.2312 0002530 148.7900 344.9896 15.50622455493420 CXO 1 25867U 99040B 25026.63825163 .00000810 00000-0 00000-0 0 9998 2 25867 46.2701 137.2371 8623610 306.5001 0.4102 0.37801369 15410 ...Continue Reading

[TLELIST] Current TLEs

January 28th 2025 PDT

HST 1 20580U 90037B 25027.00520198 .00009462 00000-0 38603-3 0 9999 2 20580 28.4683 280.2067 0002535 335.2854 24.7618 15.22681064711123 ISS (ZARYA) 1 25544U 98067A 25028.03642316 .00010230 00000-0 18296-3 0 9997 2 25544 51.6404 281.2312 0002530 148.7900 344.9896 15.50622455493420 CXO 1 25867U 99040B 25026.63825163 .00000810 00000-0 00000-0 0 9998 2 25867 46.2701 137.2371 8623610 306.5001 0.4102 0.37801369 15410 ...Continue Reading

[TLELIST] Current TLEs

January 27th 2025 PDT

HST 1 20580U 90037B 25026.93965959 .00009686 00000-0 39538-3 0 9994 2 20580 28.4683 280.6491 0002537 334.6124 25.4345 15.22680322711371 ISS (ZARYA) 1 25544U 98067A 25027.19890714 .00020113 00000-0 35189-3 0 9991 2 25544 51.6414 285.3793 0002307 145.9619 349.5412 15.50607173493297 CXO 1 25867U 99040B 25026.63825150 .00000810 00000-0 00000+0 0 9993 2 25867 46.2701 137.2371 8623610 306.5001 0.4102 0.37801369 26568 ...Continue Reading

[TLELIST] Current TLEs

January 27th 2025 PDT

HST 1 20580U 90037B 25026.93965959 .00009686 00000-0 39538-3 0 9994 2 20580 28.4683 280.6491 0002537 334.6124 25.4345 15.22680322711371 ISS (ZARYA) 1 25544U 98067A 25027.19890714 .00020113 00000-0 35189-3 0 9991 2 25544 51.6414 285.3793 0002307 145.9619 349.5412 15.50607173493297 CXO 1 25867U 99040B 25026.63825150 .00000810 00000-0 00000+0 0 9993 2 25867 46.2701 137.2371 8623610 306.5001 0.4102 0.37801369 26568 ...Continue Reading

[TLELIST] Current TLEs

January 26th 2025 PDT

HST 1 20580U 90037B 25025.89097665 .00010054 00000-0 41096-3 0 9991 2 20580 28.4685 287.7283 0002495 323.1158 36.9264 15.22658376710957 ISS (ZARYA) 1 25544U 98067A 25026.23381182 .00024447 00000-0 42619-3 0 9999 2 25544 51.6395 290.1622 0002159 133.7357 10.9595 15.50580823493146 CXO 1 25867U 99040B 25026.63825150 .00000810 00000-0 00000+0 0 9993 2 25867 46.2701 137.2371 8623610 306.5001 0.4102 0.37801369 26568 ...Continue Reading

[TLELIST] Current TLEs

January 25th 2025 PDT

HST 1 20580U 90037B 25024.44901187 .00012319 00000-0 50582-3 0 9990 2 20580 28.4688 297.4612 0002434 305.7544 54.2824 15.22627912710735 ISS (ZARYA) 1 25544U 98067A 25025.00048859 .00033214 00000-0 57704-3 0 9997 2 25544 51.6377 296.2827 0003104 141.8447 313.9175 15.50506992492954 CXO 1 25867U 99040B 25026.63825150 .00000810 00000-0 00000+0 0 9993 2 25867 46.2701 137.2371 8623610 306.5001 0.4102 0.37801369 26568 ...Continue Reading

[TLELIST] Current TLEs

January 25th 2025 PDT

HST 1 20580U 90037B 25024.44901187 .00012319 00000-0 50582-3 0 9990 2 20580 28.4688 297.4612 0002434 305.7544 54.2824 15.22627912710735 ISS (ZARYA) 1 25544U 98067A 25025.00048859 .00033214 00000-0 57704-3 0 9997 2 25544 51.6377 296.2827 0003104 141.8447 313.9175 15.50506992492954 CXO 1 25867U 99040B 25026.63825150 .00000810 00000-0 00000+0 0 9993 2 25867 46.2701 137.2371 8623610 306.5001 0.4102 0.37801369 26568 ...Continue Reading

[TLELIST] Current TLEs

January 24th 2025 PDT

HST 1 20580U 90037B 25023.92465350 .00011923 00000-0 48949-3 0 9993 2 20580 28.4689 301.0000 0002442 299.6651 60.3700 15.22614306710653 ISS (ZARYA) 1 25544U 98067A 25024.30048090 .00026540 00000-0 46335-3 0 9998 2 25544 51.6402 299.7517 0002257 126.4199 19.4494 15.50490580492843 CXO 1 25867U 99040B 25023.99516665 .00000689 00000-0 00000-0 0 9992 2 25867 46.2215 137.3609 8627046 306.4572 0.5200 0.37805238 15402 ...Continue Reading

[TLELIST] Current TLEs

January 23rd 2025 PDT

HST 1 20580U 90037B 25022.15491179 .00012566 00000-0 51700-3 0 9998 2 20580 28.4690 312.9466 0002431 279.4179 80.6140 15.22570831710388 ISS (ZARYA) 1 25544U 98067A 25023.26750491 .00026383 00000-0 46157-3 0 9994 2 25544 51.6402 304.8727 0002398 120.2571 16.0740 15.50434803492681 CXO 1 25867U 99040B 25023.99516665 .00000689 00000-0 00000-0 0 9992 2 25867 46.2215 137.3609 8627046 306.4572 0.5200 0.37805238 15402 ...Continue Reading
  • This mailing list is a public mailing list - anyone may join or leave, at any time.
  • This mailing list is announce-only.

International Space Station (ISS) / Hubble Space Telescope (HST) / Chandra X-Ray Observatory Orbital Data via EMAIL

Privacy Policy:

Private list